Weather in Durnovo

Russia / Omsk Oblast     56°17′27″N   75°24′38″E
temp.,
°C
wind,
m/s
gust,
m/s
humid.,
%
clouds,
%
prec.,
mm/h
press.,
hPa
HPBL,
m
27 february, sat
sat2700:00−28wsw239896 0.1 103332
03:00−30wsw239997 0.0 103320
06:00−31wsw239870 0.0 103419
09:00−31sw229814 0.0 103419
12:00−26ssw239316 0.0 1034214
15:00−25s349468 0.0 1034246
18:00−27s339640 0.0 103430
21:00−29s34981 0.0 103449
28 february, sun
sun2800:00−31s349829 0.0 103457
03:00−31sse349874 0.0 103263
06:00−30se479883 0.0 1031124
09:00−27se4896100 0.0 1028232
12:00−23ese5995100 0.0 1026279
15:00−20ese699399 0.0 1024341
18:00−19ese6119597 0.1 1021377
21:00−20e61296100 0.1 1018359
1 march, mon
mon100:00−19e61196100 0.3 1015333
03:00−17ene61296100 0.4 1011360
06:00−17ene71395100 1.3 1009393
09:00−16ene71394100 0.4 1008433
12:00−14ne61194100 1.1 1008457
15:00−13ne5993100 0.3 1009501
18:00−14nne4894100 0.4 1011393
21:00−16n3796100 0.1 1013145
2 march, tue
tue200:00−19n239896 0.1 101525
03:00−20nne229993 0.0 101620
06:00−19ene129896 0.1 101742
09:00−19e119799 0.2 101766
12:00−16se119198 0.3 1017245
15:00−15sse2289100 0.1 1016353
18:00−17se129599 0.1 101620
21:00−18e229781 0.1 101620
3 march, wed
wed300:00−18e129785 0.1 101620
03:00−18ene119780 0.1 101520
06:00−18ne129787 0.1 101620
09:00−18ene129776 0.1 101735
12:00−15se119175 0.1 1018244
15:00−14s118798 0.0 1019335
18:00−17s229388 0.0 102021
21:00−19s239771 0.0 102120